Wind_Speed
7 7 7 7 8 8 7 7 6 6 5 4 4 4 5 6 7 7 8 8 9 8 8 8 8 8 8 8 7 7 6 6 5 5 4 4 4 5 6 7 8 8 9
8 8 8 9 9 8 7 7 6 5 5 3 3 3 4 5 6 7 8 8 9 9 9 8 8 8 8 8 7 7 6 5 5 5 4 4 4 5 6 7 8 9 9
8 9 9 10 10 9 8 7 6 5 4 3 2 3 4 5 6 7 8 9 9 9 9 9 8 8 8 7 7 6 6 5 5 4 4 4 4 5 7 8 8 9 8
8 9 10 11 11 10 9 8 6 5 4 3 2 2 3 5 6 7 8 9 9 9 9 9 8 8 7 7 6 6 5 5 5 4 4 3 4 6 7 7 8 8 8
9 10 11 12 11 11 10 8 7 6 4 3 1 2 3 5 7 8 9 9 9 9 9 9 8 8 7 6 5 5 5 4 4 4 4 3 4 5 6 7 7 7 8
9 11 12 13 12 11 10 9 7 6 4 3 1 1 3 5 7 8 9 9 9 9 9 8 8 7 7 6 5 4 4 3 3 3 3 3 4 5 6 7 7 7 7
10 12 13 13 13 12 11 10 8 7 5 3 2 1 4 6 7 8 8 9 9 9 9 8 8 7 6 5 5 4 4 3 3 2 2 3 3 4 5 6 7 7 7
12 14 13 13 13 13 12 11 9 8 6 4 2 2 4 6 7 8 8 8 9 9 8 8 8 8 7 6 4 3 3 3 2 1 1 2 3 5 5 6 7 7 7
13 14 14 14 14 13 12 11 10 9 7 5 3 3 4 6 7 8 8 8 8 8 8 8 8 8 7 6 4 4 3 2 1 1 2 2 3 5 6 6 6 6 7
14 15 16 15 15 14 13 12 11 10 9 7 5 4 5 6 7 8 8 8 8 8 8 8 8 7 7 6 5 4 3 2 2 2 3 3 4 5 6 7 7 7 7
13 15 16 17 15 14 13 13 12 11 10 8 7 5 5 6 7 8 8 8 8 8 8 8 7 6 6 5 5 4 3 3 3 3 4 5 6 6 7 8 8 8 8
14 15 16 17 16 15 14 13 13 12 10 9 8 7 6 7 7 8 8 8 8 8 8 7 6 5 5 5 4 3 4 3 3 3 4 6 6 8 8 9 9 8 9
15 16 17 17 16 16 15 14 13 13 12 11 9 8 8 7 7 8 8 8 8 8 7 6 4 4 4 3 3 3 4 4 3 4 5 6 7 8 9 9 9 9 9
15 17 17 19 18 18 17 16 15 14 13 12 11 9 8 8 8 8 8 8 8 7 7 6 4 3 3 3 3 3 4 4 5 5 6 6 7 8 9 10 10 10 10
14 17 18 20 20 19 18 18 16 15 13 11 11 10 9 8 8 8 8 8 8 7 6 5 4 3 3 3 3 3 4 4 5 5 5 6 7 8 9 10 11 11 11
14 16 18 21 22 21 19 19 18 17 14 12 11 10 9 8 8 8 8 7 7 6 5 5 4 3 2 2 2 3 3 3 4 5 5 6 7 7 8 10 11 11 11
12 15 16 21 23 22 21 20 19 18 16 14 12 11 9 8 8 8 7 6 6 5 4 4 3 2 2 2 2 2 2 2 3 4 5 5 6 6 7 9 11 11 11
12 14 16 18 22 23 22 20 19 18 16 15 12 10 9 8 8 7 6 5 5 4 4 3 3 2 1 1 1 2 2 2 2 3 4 4 5 6 6 7 9 10 10
12 14 17 18 21 22 23 23 21 18 17 15 13 11 9 9 8 6 5 4 4 4 3 3 2 1 1 1 1 2 2 2 2 2 3 3 3 4 5 6 7 8 8
12 15 18 19 20 22 23 23 22 20 18 16 14 12 11 9 8 7 6 5 4 4 3 2 2 2 2 2 2 2 2 2 2 2 2 2 2 3 4 5 5 6 6
11 14 18 19 18 20 22 21 21 21 19 17 15 13 12 10 9 8 7 5 4 3 2 2 2 2 2 2 2 2 2 2 2 2 2 2 2 2 3 4 4 5 5
10 12 16 19 19 19 21 22 22 21 20 18 16 14 13 12 10 8 7 6 5 4 3 2 2 2 2 2 2 2 2 2 2 2 2 2 2 2 2 3 4 4 5
7 10 14 18 20 21 22 22 22 21 19 18 16 15 13 12 11 9 8 7 6 5 4 3 3 2 2 2 1 1 1 2 2 2 2 2 2 2 2 3 3 4 5
7 10 13 17 20 21 21 22 22 21 19 18 17 15 14 12 11 10 9 9 8 7 6 5 4 3 3 2 2 2 2 2 2 2 2 2 2 2 2 3 4 4 5
6 10 12 16 19 20 21 21 22 21 19 18 17 15 14 13 12 11 11 10 9 8 8 7 6 5 4 3 3 2 2 3 3 3 3 3 3 3 4 4 5 5 6
4 8 12 14 16 19 21 22 21 20 20 18 17 15 15 14 13 12 12 12 11 10 9 8 8 7 6 6 5 5 5 5 5 5 5 5 5 6 6 6 7 7 8
Wind_Direction
215 213 211 200 187 173 159 145 131 117 103 82 55 32 17 9 3 359 356 355 356 358 1 5 10 16 21 23 24 27 31 37 44 56 69 81 98 112 120 127 127 126 127
222 216 212 206 196 184 169 156 142 127 113 91 60 33 14 7 2 358 354 354 355 356 358 3 6 11 16 18 20 25 32 38 44 59 68 83 109 121 128 131 130 129 127
218 216 214 211 202 191 179 166 153 139 123 101 63 30 11 3 357 354 351 351 353 354 357 360 3 7 11 16 20 25 34 38 42 58 65 76 115 132 138 140 137 135 129
217 215 213 212 204 196 184 173 162 153 139 117 70 26 8 359 354 350 349 349 349 350 353 355 358 3 7 12 15 18 29 38 42 55 67 87 127 139 146 146 144 140 135
220 214 212 211 204 197 190 182 172 161 154 136 88 18 360 351 349 347 346 345 344 346 348 351 354 358 0 6 9 14 25 40 47 52 74 95 129 142 149 151 150 142 139
220 215 212 211 206 202 196 188 177 169 165 161 156 355 346 343 344 345 343 340 340 344 347 351 353 354 356 360 2 7 14 28 36 47 81 106 132 142 151 154 152 145 143
223 217 212 212 208 205 201 196 187 180 180 183 195 309 329 335 338 340 337 335 335 338 343 347 348 347 348 351 354 356 0 14 28 54 107 125 143 156 163 161 154 149 147
223 217 212 212 208 204 202 199 193 191 194 198 212 276 308 322 328 329 329 329 329 331 336 338 339 339 338 337 339 336 338 341 345 91 139 147 158 163 169 170 164 159 152
224 218 212 210 207 205 204 203 199 197 200 207 227 266 295 311 318 319 319 323 326 327 330 331 330 329 328 327 329 322 312 309 310 208 179 168 169 173 174 173 174 172 166
226 219 216 212 208 207 208 207 206 205 207 216 231 257 285 302 310 311 311 317 322 323 324 325 324 320 319 317 317 314 304 281 284 248 209 198 191 186 187 186 185 185 181
230 221 217 215 210 207 208 208 210 211 213 220 230 250 277 294 301 304 306 311 316 320 321 322 323 320 317 313 308 302 290 279 272 241 214 209 202 198 200 199 194 194 193
232 226 219 215 212 209 210 211 214 216 220 226 234 248 267 283 291 297 299 304 309 314 317 318 322 321 317 311 296 286 276 266 251 230 218 211 210 207 206 207 204 203 203
230 226 218 216 213 213 213 217 216 217 222 230 239 249 260 272 282 291 294 298 303 308 312 314 318 319 318 306 288 276 267 256 240 231 223 220 218 218 212 210 212 211 210
234 223 217 216 215 214 215 218 215 218 225 232 241 247 252 264 277 287 292 295 299 302 305 309 308 305 306 297 281 275 269 252 238 232 227 223 220 218 217 216 217 218 219
234 225 221 217 215 214 214 216 215 221 224 227 234 241 249 261 273 283 288 293 295 295 298 303 300 295 292 285 272 268 258 243 232 229 227 224 221 222 223 221 220 219 222
232 228 223 216 216 214 214 214 215 220 223 225 230 238 247 255 266 275 285 290 290 289 291 293 297 296 286 273 260 255 246 235 229 230 231 226 222 227 231 230 221 222 226
229 224 220 219 217 215 215 214 216 220 222 224 227 235 241 249 260 271 283 284 282 282 283 287 293 295 275 262 251 241 230 225 228 232 228 225 229 234 238 233 226 227 230
229 226 220 213 213 213 213 216 217 220 222 221 224 229 236 244 253 264 275 274 272 273 274 273 276 280 267 247 220 205 205 210 212 212 211 219 227 234 236 236 231 231 235
239 224 216 213 212 213 214 214 217 217 217 218 221 226 230 237 245 253 258 259 261 261 261 261 261 256 225 182 173 180 183 184 202 202 202 211 221 228 234 236 235 233 240
246 220 213 212 210 211 212 213 212 212 212 215 219 222 227 233 237 239 242 245 246 247 250 245 225 211 184 163 159 166 165 170 192 201 207 211 220 225 232 235 234 237 244
243 219 211 208 208 209 207 207 208 207 208 210 213 220 225 230 233 233 235 234 234 233 229 207 190 184 172 161 154 156 158 160 175 179 182 198 214 225 229 227 230 236 247
235 218 213 206 203 202 202 202 203 204 205 210 214 217 223 227 228 227 228 225 220 218 209 194 175 160 150 145 144 152 163 164 176 185 186 197 210 222 236 235 233 235 243
223 211 207 202 200 198 198 199 200 202 206 211 214 218 221 224 225 224 222 218 214 210 205 204 193 178 170 167 169 169 173 172 171 179 192 208 221 233 241 241 241 248 254
221 203 204 203 200 197 198 200 199 203 208 210 215 219 221 225 224 223 221 217 214 212 211 213 211 206 205 208 207 208 214 212 207 210 228 240 246 253 254 253 257 261 264
218 206 203 200 198 198 198 200 201 204 208 211 217 220 221 222 222 222 222 220 220 219 220 222 224 227 229 230 231 236 240 239 240 244 251 261 265 267 268 273 274 272 270
215 202 198 196 198 199 200 201 202 206 208 211 215 217 219 222 221 222 223 225 226 227 229 228 231 237 240 242 246 253 257 257 257 259 263 269 273 275 275 276 277 278 277
Height
5876 5877 5878 5880 5881 5881 5882 5883 5884 5885 5886 5888 5888 5889 5890 5890 5890 5891 5890 5890 5890 5890 5889 5889 5888 5888 5887 5887 5887 5886 5886 5886 5886 5885 5885 5885 5886 5886 5887 5887 5888 5889 5890
5874 5876 5878 5879 5880 5881 5882 5882 5883 5884 5886 5887 5888 5889 5890 5890 5890 5891 5890 5890 5890 5890 5889 5889 5888 5888 5888 5887 5887 5887 5886 5886 5886 5886 5886 5886 5886 5887 5887 5888 5889 5890 5891
5873 5875 5876 5878 5879 5880 5881 5882 5883 5884 5885 5887 5888 5889 5889 5890 5890 5890 5890 5890 5889 5889 5889 5889 5888 5888 5888 5888 5887 5887 5887 5887 5887 5886 5886 5886 5887 5887 5888 5889 5890 5891 5893
5872 5874 5875 5877 5878 5879 5880 5881 5882 5884 5885 5886 5887 5888 5889 5889 5889 5889 5889 5889 5889 5889 5889 5888 5888 5888 5888 5888 5887 5887 5887 5887 5887 5887 5887 5887 5888 5888 5889 5890 5891 5892 5893
5871 5872 5874 5876 5877 5878 5879 5880 5882 5883 5884 5885 5886 5887 5888 5888 5888 5889 5888 5888 5888 5888 5888 5888 5888 5888 5888 5888 5887 5887 5887 5888 5888 5888 5888 5888 5888 5889 5890 5891 5892 5893 5894
5869 5870 5872 5874 5875 5877 5878 5879 5881 5882 5883 5885 5886 5886 5887 5887 5887 5888 5888 5888 5888 5888 5888 5888 5887 5888 5888 5887 5887 5887 5887 5888 5888 5888 5888 5889 5889 5890 5891 5892 5893 5894 5895
5867 5869 5871 5873 5874 5875 5877 5878 5880 5881 5882 5884 5885 5885 5886 5886 5887 5887 5887 5887 5887 5887 5887 5887 5887 5887 5887 5887 5887 5887 5887 5888 5888 5888 5889 5889 5890 5891 5891 5892 5893 5894 5895
5865 5867 5869 5871 5872 5874 5875 5877 5878 5880 5882 5883 5884 5885 5885 5886 5886 5886 5886 5886 5886 5886 5887 5887 5886 5886 5886 5886 5886 5887 5887 5887 5888 5888 5889 5889 5890 5891 5892 5893 5894 5895 5896
5864 5865 5867 5869 5871 5873 5874 5876 5877 5879 5880 5882 5883 5884 5884 5885 5885 5885 5885 5885 5885 5885 5886 5886 5886 5885 5885 5885 5885 5886 5886 5886 5887 5888 5888 5889 5890 5891 5892 5893 5894 5895 5896
5861 5863 5865 5867 5869 5871 5873 5875 5876 5878 5879 5880 5882 5883 5883 5884 5884 5884 5884 5884 5884 5884 5885 5885 5885 5884 5884 5884 5884 5885 5885 5886 5886 5887 5888 5888 5889 5890 5891 5893 5894 5895 5896
5857 5860 5862 5865 5867 5869 5871 5873 5875 5876 5878 5879 5880 5881 5882 5883 5883 5883 5884 5883 5883 5883 5884 5884 5884 5883 5883 5883 5883 5884 5884 5885 5885 5886 5887 5887 5888 5890 5891 5892 5893 5895 5896
5855 5857 5859 5861 5864 5867 5869 5871 5873 5875 5876 5878 5879 5880 5881 5881 5882 5882 5882 5882 5882 5882 5882 5883 5883 5882 5882 5882 5882 5883 5883 5884 5884 5885 5885 5886 5887 5889 5890 5891 5893 5894 5895
5852 5853 5856 5859 5862 5865 5867 5869 5871 5873 5875 5876 5877 5879 5879 5880 5881 5881 5881 5881 5881 5881 5881 5881 5881 5881 5881 5881 5881 5882 5882 5882 5883 5884 5884 5885 5886 5887 5889 5890 5892 5893 5894
5848 5849 5852 5856 5859 5861 5864 5867 5869 5871 5873 5874 5876 5877 5878 5879 5879 5879 5879 5879 5880 5880 5880 5880 5880 5880 5881 5881 5880 5881 5881 5881 5882 5883 5883 5884 5885 5886 5887 5889 5890 5892 5893
5844 5846 5850 5852 5855 5858 5861 5864 5867 5869 5871 5872 5874 5875 5876 5877 5878 5878 5878 5878 5878 5878 5879 5879 5879 5879 5880 5880 5879 5880 5880 5880 5881 5882 5882 5883 5884 5885 5886 5887 5888 5890 5891
5840 5843 5845 5849 5852 5855 5858 5861 5864 5866 5869 5870 5872 5874 5875 5875 5876 5877 5877 5877 5877 5877 5877 5878 5878 5878 5879 5879 5879 5879 5879 5879 5880 5881 5881 5882 5883 5884 5885 5886 5887 5888 5889
5836 5839 5842 5845 5848 5852 5855 5858 5861 5864 5866 5869 5870 5872 5873 5874 5875 5875 5876 5876 5876 5876 5876 5877 5877 5878 5878 5878 5878 5878 5878 5879 5879 5880 5880 5881 5882 5882 5883 5884 5885 5886 5887
5833 5835 5838 5840 5844 5848 5852 5855 5858 5861 5864 5867 5869 5870 5871 5872 5874 5874 5875 5875 5875 5875 5876 5876 5877 5877 5877 5877 5878 5878 5878 5878 5878 5879 5879 5880 5881 5881 5882 5882 5883 5884 5885
5829 5831 5834 5837 5840 5844 5848 5851 5855 5859 5862 5864 5867 5868 5870 5871 5872 5873 5874 5874 5874 5875 5875 5875 5876 5876 5877 5877 5877 5878 5878 5878 5878 5879 5879 5879 5880 5880 5881 5882 5882 5883 5884
5825 5827 5829 5833 5837 5840 5844 5848 5852 5856 5860 5862 5865 5867 5868 5870 5871 5872 5872 5873 5874 5874 5875 5875 5875 5876 5877 5877 5877 5877 5878 5878 5878 5878 5879 5879 5879 5880 5880 5881 5881 5882 5883
5821 5823 5825 5829 5834 5837 5841 5845 5849 5853 5857 5860 5863 5865 5867 5868 5869 5870 5871 5872 5873 5874 5874 5875 5875 5876 5876 5877 5878 5878 5878 5878 5878 5878 5879 5879 5879 5879 5879 5880 5880 5881 5882
5819 5821 5823 5826 5831 5835 5839 5843 5847 5851 5855 5858 5860 5863 5865 5866 5868 5869 5870 5871 5872 5873 5874 5874 5875 5876 5876 5877 5878 5878 5878 5879 5878 5878 5879 5879 5879 5879 5879 5879 5880 5880 5881
5818 5819 5821 5825 5829 5833 5837 5841 5845 5849 5853 5856 5859 5861 5863 5865 5867 5868 5869 5871 5872 5873 5873 5874 5875 5876 5876 5877 5877 5878 5878 5878 5878 5879 5879 5879 5879 5879 5879 5879 5879 5880 5880
5818 5819 5820 5823 5827 5831 5835 5839 5843 5847 5850 5854 5856 5859 5861 5863 5865 5867 5868 5869 5871 5872 5873 5874 5874 5875 5876 5876 5877 5877 5878 5878 5878 5879 5879 5879 5879 5879 5879 5879 5879 5879 5879
5818 5818 5820 5822 5824 5829 5832 5836 5841 5845 5848 5851 5854 5857 5859 5861 5863 5865 5866 5868 5870 5871 5872 5873 5874 5874 5875 5876 5876 5877 5877 5877 5878 5878 5878 5878 5878 5878 5878 5878 5878 5878 5877
5818 5818 5819 5821 5824 5827 5831 5834 5839 5843 5846 5849 5852 5855 5857 5859 5861 5863 5865 5867 5868 5869 5871 5872 5872 5873 5874 5875 5875 5876 5876 5876 5877 5877 5877 5877 5877 5877 5877 5877 5876 5876 5876